www.pogodaiklimat.ru

Погода и климат >> Архив погоды >> Норвегия >> Тафьорд


ПОГОДА в Тафьорде

  • Прогноз погоды в Тафьорде
  • Монитор погоды в Тафьорде

АРХИВ ПОГОДЫ в Тафьорде

Время (UTC), дата Ветер
(напр.,м/с)
 
Видим.   Явления Облачность Т
(С)
Тd
(С)
f
(%)
Тe
(С)
Тes
(С)
Комфортность P
(гПа)
Po
(гПа)
Тmin
(С)
Tmax
(С)
R
(мм)
R24
(мм)
S
(см)
22 8.09 Ю 1
{2}
н/о н/о +6.2 +5.5 95 +5 +5 1021.4 1019.2
23 8.09 З 1
{4}
н/о н/о +5.7 +5.0 95 +4 +4 1021.3 1019.1
00 9.09 Ю 1
{4}
н/о н/о +5.7 +5.1 96 +4 +4 1020.9 1018.7
01 9.09 ЮВ 1
{4}
н/о н/о +5.5 +4.9 96 +4 +4 1020.9 1018.7
02 9.09 Ю 1
{3}
н/о н/о +5.3 +4.7 96 +4 +4 1020.8 1018.6
03 9.09 С 1
{4}
н/о н/о +5.2 +4.6 96 +4 +4 1020.6 1018.4
04 9.09 штиль 0
{4}
н/о н/о +5.0 +4.4 96 +4 +4 1020.6 1018.4
05 9.09 СЗ 1
{4}
н/о н/о +5.7 +5.1 96 +4 +4 1020.2 1018.0
06 9.09 С 1
{4}
н/о н/о +6.2 +5.6 96 +5 +5 1020.2 1018.0 +4.9 +8.6
07 9.09 Ю 1
{3}
н/о н/о +6.2 +5.6 96 +5 +5 1020.1 1017.9
08 9.09 СВ 1
{4}
н/о н/о +6.5 +5.9 96 +5 +5 1019.5 1017.3
09 9.09 С 1
{2}
н/о н/о +8.6 +6.6 87 +8 +8 1019.5 1017.4
10 9.09 штиль 0
{1}
н/о н/о +11.7 +6.4 70 +11 +11 1018.6 1016.5
11 9.09 С 1
{2}
н/о н/о +13.2 +7.4 68 +13 +13 1018.4 1016.3
12 9.09 С 1
{4}
н/о н/о +14.1 +5.7 57 +15 +15 1017.7 1015.6
13 9.09 н/о
14 9.09 С 1
{2}
н/о н/о +13.4 +5.8 60 +14 +14 1017.3 1015.2
15 9.09 С 1
{2}
н/о н/о +14.5 +8.5 67 +15 +15 1016.9 1014.8
16 9.09 штиль 0
{4}
н/о н/о +13.8 +8.2 69 +14 +14 1016.8 1014.7
17 9.09 штиль 0
{2}
н/о н/о +12.1 +10.0 87 +12 +12 1016.9 1014.8
18 9.09 Ю 1
{4}
н/о н/о +10.7 +9.1 90 +10 +10 1017.0 1014.9 +6.0 +15.3
19 9.09 Ю 1
{2}
н/о н/о +9.5 +8.6 94 +9 +9 1017.1 1015.0
20 9.09 СЗ 1
{2}
н/о н/о +8.6 +7.7 94 +8 +8 1017.2 1015.1
21 9.09 Ю 1
{3}
н/о н/о +8.5 +7.8 95 +8 +8 1017.0 1014.9
22 9.09 Ю 1
{2}
н/о н/о +7.9 +7.2 95 +7 +7 1017.2 1015.1
23 9.09 В 1
{3}
н/о н/о +7.8 +7.2 96 +7 +7 1017.1 1015.0
00 10.09 штиль 0
{3}
н/о н/о +7.2 +6.6 96 +6 +6 1016.9 1014.8
01 10.09 Ю 1
{2}
н/о н/о +7.4 +7.0 97 +6 +6 1017.1 1015.0
02 10.09 Ю 1
{2}
н/о н/о +7.6 +7.2 97 +7 +7 1016.7 1014.6
03 10.09 В 1
{2}
н/о н/о +7.6 +7.2 97 +7 +7 1016.3 1014.2
04 10.09 ЮВ 1
{2}
н/о н/о +7.6 +7.0 96 +7 +7 1016.0 1013.9
05 10.09 штиль 0
{2}
н/о н/о +7.8 +7.4 97 +7 +7 1016.0 1013.9
06 10.09 штиль 0
{2}
н/о н/о +8.3 +7.9 97 +7 +7 1015.8 1013.7 +7.0 +10.7
07 10.09 н/о
08 10.09 н/о
09 10.09 С 1
{2}
н/о н/о +10.7 +8.6 87 +10 +10 1015.1 1013.0
10 10.09 С 1
{3}
н/о н/о +11.3 +8.5 83 +11 +11 1014.7 1012.6
11 10.09 С 1
{2}
н/о н/о +11.7 +8.0 78 +12 +12 1014.1 1012.0
12 10.09 СЗ 1
{3}
н/о н/о +12.6 +8.3 75 +13 +13 1013.8 1011.7
13 10.09 С 1
{2}
н/о н/о +13.5 +8.6 72 +14 +14 1013.4 1011.3
14 10.09 С 1
{2}
н/о н/о +13.4 +8.7 73 +14 +14 1013.0 1010.9
15 10.09 С 1
{3}
н/о н/о +13.3 +8.4 72 +14 +14 1012.3 1010.2
16 10.09 н/о
17 10.09 штиль 0
{2}
н/о н/о +13.0 +9.1 77 +13 +13 1011.0 1008.9
18 10.09 ЮВ 2
{4}
н/о н/о +12.6 +10.5 87 +12 +12 1010.5 1008.4 +8.3 +14.1
19 10.09 штиль 0
{3}
н/о н/о +11.1 +9.7 91 +10 +10 1009.1 1007.0
20 10.09 ЮВ 1
{4}
н/о н/о +10.7 +9.6 93 +10 +10 1008.6 1006.5
21 10.09 СЗ 1
{2}
н/о н/о +11.1 +10.0 93 +11 +11 1007.8 1005.7
22 10.09 Ю 1
{2}
н/о н/о +11.2 +10.0 92 +11 +11 1007.1 1005.0
23 10.09
{2}
н/о н/о +11.2 +10.0 92 1006.1 1004.0
00 11.09 С 1
{4}
н/о н/о +11.3 +10.1 92 +11 +11 1005.0 1002.9
01 11.09 ЮВ 1
{2}
н/о н/о +11.3 +10.2 93 +11 +11 1003.5 1001.4
02 11.09 штиль 0
{2}
н/о н/о +11.3 +10.1 92 +11 +11 1002.5 1000.4
03 11.09 Ю 3
{9}
н/о н/о +16.4 +9.8 65 +16 +16 1000.8 998.8
04 11.09 ЮВ 7
{15}
н/о н/о +20.4 +7.1 42 +21 +21 комфорт 999.5 997.5
05 11.09 ЮВ 7
{16}
н/о н/о +20.6 +5.8 38 +21 +21 комфорт 998.8 996.8
06 11.09 Ю 8
{16}
н/о н/о +20.4 +4.0 34 +20 +20 998.1 996.1 +10.5 +20.6
07 11.09 Ю 9
{18}
н/о н/о +19.7 +3.0 33 +19 +19 998.1 996.1
08 11.09 Ю 6
{18}
н/о н/о +19.8 +2.7 32 +20 +20 997.4 995.4
09 11.09 Ю 9
{19}
н/о н/о +19.4 +2.3 32 +19 +19 997.8 995.8
10 11.09 ЮВ 9
{17}
н/о н/о +19.3 +3.5 35 +19 +19 997.3 995.3
11 11.09 ЮВ 7
{16}
н/о н/о +18.6 +3.7 37 +18 +18 997.6 995.6
12 11.09 Ю 5
{19}
н/о н/о +18.6 +4.0 38 +18 +18 997.3 995.3
13 11.09 Ю 6
{11}
н/о н/о +18.6 +4.8 40 +18 +18 997.3 995.3
14 11.09 Ю 4
{11}
н/о н/о +19.1 +4.5 38 +19 +19 996.8 994.8
15 11.09 СВ 1
{8}
н/о н/о +17.0 +7.6 54 +18 +18 997.2 995.2
16 11.09 ЮВ 3
{5}
н/о н/о +14.2 +12.1 87 +13 +13 998.4 996.3 0.2
17 11.09 ЮВ 3
{4}
н/о н/о +13.9 +10.7 81 +13 +13 999.2 997.1
18 11.09 С 1
{11}
н/о н/о +12.9 +11.1 89 +13 +13 999.8 997.7 +12.9 +20.5 0.2
19 11.09 З 1
{4}
н/о н/о +12.8 +10.9 88 +13 +13 1000.7 998.6
20 11.09 СВ 1
{4}
н/о н/о +12.1 +10.2 88 +12 +12 1001.1 999.0
21 11.09 ЮВ 1
{3}
н/о н/о +12.1 +10.4 89 +12 +12 1001.9 999.8 0.1
22 11.09 СЗ 1
{5}
н/о н/о +11.3 +10.1 92 +11 +11 1002.4 1000.3
23 11.09 СВ 1
{4}
н/о н/о +11.0 +8.9 87 +11 +11 1002.6 1000.5
00 12.09 штиль 0
{5}
н/о н/о +11.1 +8.9 86 +10 +10 1003.2 1001.1
01 12.09 ЮВ 4
{7}
н/о н/о +13.9 +6.5 61 +13 +13 1003.7 1001.6
02 12.09 СВ 2
{7}
н/о н/о +13.9 +6.0 59 +14 +14 1004.3 1002.2
03 12.09 Ю 1
{5}
н/о н/о +11.7 +8.6 81 +12 +12 1004.5 1002.4
04 12.09 С 1
{3}
н/о н/о +11.4 +8.3 81 +11 +11 1004.5 1002.4
05 12.09 ЮВ 1
{5}
н/о н/о +11.0 +8.6 85 +11 +11 1004.8 1002.7
06 12.09 Ю 1
{7}
н/о н/о +11.0 +9.4 90 +11 +11 1005.3 1003.2 +10.8 +14.4 0.1
07 12.09 ЮВ 1
{4}
н/о н/о +12.0 +8.7 80 +12 +12 1005.3 1003.2
08 12.09 В 1
{4}
н/о н/о +12.0 +9.4 84 +12 +12 1005.9 1003.8 0.1
09 12.09 В 2
{5}
н/о н/о +12.9 +9.7 81 +12 +12 1005.9 1003.8 0.1
10 12.09 Ю 1
{3}
н/о н/о +12.5 +10.4 87 +12 +12 1006.5 1004.4 0.4
11 12.09 СЗ 1
{5}
н/о н/о +13.7 +9.9 78 +14 +14 1007.3 1005.2 0.2
12 12.09 СВ 2
{5}
н/о н/о +15.3 +6.1 54 +15 +15 1008.0 1005.9
13 12.09 Ю 1
{9}
н/о н/о +16.2 +6.6 53 +17 +17 1008.2 1006.1
14 12.09 Ю 3
{12}
н/о н/о +15.0 +3.5 46 +14 +14 1008.6 1006.5
15 12.09 СВ 3
{9}
н/о н/о +11.4 +7.1 75 +10 +10 1010.0 1007.9 0.2
16 12.09 Ю 2
{7}
н/о н/о +11.1 +8.5 84 +10 +10 1009.8 1007.7 1
17 12.09 СВ 1
{2}
н/о н/о +10.0 +8.8 92 +9 +9 1010.3 1008.2 0.8
18 12.09 СЗ 1
{12}
н/о н/о +9.9 +9.0 94 +9 +9 1010.7 1008.6 +16.3 4
19 12.09 ЮВ 2
{3}
н/о н/о +8.9 +7.8 93 +7 +7 1010.8 1008.7 0.1
20 12.09 С 1
{2}
н/о н/о +8.8 +7.9 94 +8 +8 1010.7 1008.6
21 12.09 ЮВ 1
{6}
н/о н/о +9.3 +8.4 94 +9 +9 1011.6 1009.5 0.8
22 12.09 штиль 0
{2}
н/о н/о +9.0 +8.2 95 +8 +8 1012.0 1009.9 0.8
23 12.09 СВ 1
{3}
н/о н/о +8.2 +7.3 94 +7 +7 1012.2 1010.1 1
00 13.09 СВ 2
{6}
н/о н/о +8.3 +7.6 95 +6 +6 1012.7 1010.6
01 13.09 С 1
{3}
н/о н/о +8.4 +7.5 94 +8 +8 1013.2 1011.1 1
02 13.09 В 1
{2}
н/о н/о +8.2 +7.5 95 +7 +7 1014.0 1011.9 3
03 13.09 З 1
{6}
н/о н/о +7.9 +6.4 90 +7 +7 1014.2 1012.1 4
04 13.09 ЮВ 1
{4}
н/о н/о +7.2 +6.2 93 +6 +6 1014.2 1012.1 0.6
05 13.09 В 1
{3}
н/о н/о +7.3 +6.6 95 +6 +6 1014.8 1012.7 0.9
06 13.09 В 1
{6}
н/о н/о +7.4 +6.5 94 +6 +6 1015.8 1013.7 +7.2 +9.9 15
07 13.09 С 1
{2}
н/о н/о +7.7 +7.0 95 +7 +7 1016.1 1014.0 2
08 13.09 В 1
{2}
н/о н/о +8.3 +6.9 91 +7 +7 1016.5 1014.4 0.3
09 13.09 ЮВ 1
{2}
н/о н/о +8.8 +7.3 90 +8 +8 1017.4 1015.3 0.8
10 13.09 С 1 н/о н/о +8.8 +6.6 86 +8 +8 1018.2 1016.1 0.9
11 13.09 СВ 2 н/о н/о +9.7 +6.6 81 +8 +8 1018.4 1016.3
12 13.09
{3}
н/о н/о
13 13.09 СВ 2 н/о н/о +9.8 +6.9 82 +8 +8 1018.8 1016.7 0.4
14 13.09 СЗ 1 н/о н/о +10.3 +7.9 85 +10 +10 1018.8 1016.7 0.2
15 13.09 Ю 1 н/о н/о +10.2 +7.3 82 +10 +10 1018.9 1016.8 0.1
16 13.09 Ю 1 н/о н/о +9.7 +8.0 89 +9 +9 1019.3 1017.2 0.3
17 13.09 СВ 1 н/о н/о +8.8 +7.4 91 +8 +8 1019.8 1017.7 0.4
18 13.09 СВ 1
{4}
н/о н/о +8.0 +6.8 92 +7 +7 1020.1 1018.0 +10.5 6
19 13.09 В 1 н/о н/о +7.8 +6.9 94 +7 +7 1020.7 1018.6 2
20 13.09 Ю 1 н/о н/о +7.9 +7.2 95 +7 +7 1021.5 1019.3 0.8
21 13.09 СВ 1 н/о н/о +7.5 +6.6 94 +6 +6 1021.5 1019.3
22 13.09 ЮВ 1 н/о н/о +7.5 +6.3 92 +7 +7 1021.7 1019.5 2
23 13.09 СВ 1 н/о н/о +7.2 +6.0 92 +6 +6 1022.0 1019.8 2
00 14.09 штиль 0
{5}
н/о н/о +6.9 +6.2 95 +6 +6 1021.8 1019.6 8
01 14.09 ЮВ 1
{3}
н/о н/о +6.9 +6.0 94 +6 +6 1022.3 1020.1 0.9
02 14.09 СВ 1
{2}
н/о н/о +6.8 +5.9 94 +6 +6 1022.6 1020.4 0.7
03 14.09 СВ 1 н/о н/о +6.6 +5.7 94 +5 +5 1022.3 1020.1 0.2
04 14.09 СВ 1
{2}
н/о н/о +6.8 +6.1 95 +6 +6 1021.8 1019.6
05 14.09 штиль 0
{2}
н/о н/о +6.9 +6.2 95 +6 +6 1021.8 1019.6 0.3
06 14.09 штиль 0
{4}
н/о н/о +7.1 +6.4 95 +6 +6 1021.8 1019.6 +6.6 +8.4 10
07 14.09 С 1 н/о н/о +7.5 +6.4 93 +6 +6 1021.2 1019.0 0.1
08 14.09 СВ 1
{2}
н/о н/о +8.1 +6.6 90 +7 +7 1020.4 1018.3
09 14.09 С 1
{3}
н/о н/о +9.2 +6.7 84 +9 +9 1019.4 1017.3
10 14.09 СЗ 1
{3}
н/о н/о +10.2 +7.1 81 +10 +10 1018.6 1016.5 0.1
11 14.09 СВ 1
{3}
н/о н/о +10.8 +6.9 77 +11 +11 1016.9 1014.8
12 14.09 Ю 1
{3}
н/о н/о +11.0 +6.9 76 +11 +11 1015.6 1013.5
13 14.09 В 2
{6}
н/о н/о +11.9 +5.1 63 +11 +11 1013.7 1011.6
14 14.09 Ю 6
{11}
н/о н/о +13.6 +2.8 48 +12 +12 1011.3 1009.2
15 14.09 ЮЗ 3
{10}
н/о н/о +12.8 +4.3 56 +12 +12 1009.0 1006.9
16 14.09 Ю 8
{13}
н/о н/о +13.2 +3.9 53 +11 +11 1006.5 1004.4
17 14.09 Ю 3
{13}
н/о н/о +12.0 +5.0 62 +11 +11 1004.3 1002.2 0.5
18 14.09 ЮВ 2
{13}
н/о н/о +9.4 +7.7 89 +8 +8 1003.1 1001.0 +13.9 2
19 14.09 штиль 0
{2}
н/о н/о +8.9 +8.0 94 +8 +8 1002.0 999.9 3
20 14.09 Ю 2
{10}
н/о н/о +9.4 +6.8 84 +8 +8 1001.4 999.3 7
21 14.09 ЮВ 4
{11}
н/о н/о +10.0 +5.0 71 +7 +7 999.8 997.7 3
22 14.09 С 2
{10}
н/о н/о +9.2 +7.0 86 +7 +7 997.7 995.6 0.1
23 14.09 В 1
{6}
н/о н/о +8.7 +7.3 91 +8 +8 996.8 994.7 0.6
00 15.09 СВ 2
{11}
н/о н/о +9.2 +7.2 87 +7 +7 996.2 994.1 0.1
01 15.09 ЮВ 1
{4}
н/о н/о +8.3 +7.2 93 +7 +7 995.6 993.5 0.2
02 15.09 С 2
{13}
н/о н/о +8.0 +5.8 86 +6 +6 995.3 993.2 1
03 15.09 Ю 4
{9}
н/о н/о +8.8 +3.9 71 +6 +6 993.8 991.7 0.7
04 15.09 ЮВ 1
{5}
н/о н/о +7.5 +6.0 90 +7 +7 993.3 991.2 0.2
05 15.09 штиль 0
{5}
н/о н/о +7.1 +6.1 93 +6 +6 992.5 990.4 0.9
06 15.09 С 1
{13}
н/о н/о +7.3 +5.9 91 +6 +6 991.6 989.5 +7.0 +11.5 18
07 15.09 ЮВ 1
{4}
н/о н/о +7.7 +6.6 93 +7 +7 991.2 989.1 1
08 15.09 В 2
{4}
н/о н/о +8.0 +6.6 91 +6 +6 990.5 988.4 0.5
09 15.09 Ю 4
{10}
н/о н/о +10.0 +4.8 70 +7 +7 989.9 987.8 1
10 15.09 В 2
{9}
н/о н/о +8.7 +6.3 85 +7 +7 990.0 987.9 0.9
11 15.09 СЗ 1
{6}
н/о н/о +8.7 +7.0 89 +8 +8 990.7 988.6 2
12 15.09 СВ 1
{10}
н/о н/о +8.6 +7.1 90 +8 +8 991.6 989.5 0.9
13 15.09 З 1
{4}
н/о н/о +8.6 +7.7 94 +8 +8 992.8 990.7 4
14 15.09 С 2
{4}
н/о н/о +8.7 +7.5 92 +7 +7 993.3 991.2 3
15 15.09 С 1
{2}
н/о н/о +8.8 +7.9 94 +8 +8 993.9 991.8 4
16 15.09 З 1
{2}
н/о н/о +8.9 +8.1 95 +8 +8 995.3 993.2 2
17 15.09 СВ 5
{11}
н/о н/о +11.1 +7.0 76 +8 +8 996.5 994.4 2
18 15.09 СВ 7
{17}
н/о н/о +11.5 +6.4 71 +8 +8 997.3 995.2 +7.3 +12.3 0.3
19 15.09 СВ 3
{10}
н/о н/о +10.7 +7.0 78 +9 +9 998.4 996.3 1
20 15.09 СВ 6
{17}
н/о н/о +9.9 +6.3 78 +6 +6 1000.9 998.8 6
21 15.09
{13}
н/о н/о +9.2 +6.1 81 1002.8 1000.7 5

 

Местоположение метеостанции Тафьорд (Норвегия): широта 62.23 долгота 7.42 высота над уровнем моря 11 м.

В архиве по умолчанию представлена погода в Тафьорде за последнюю неделю. Архивные данные за месяц целиком и за предыдущие месяцы, начиная с января 2011 года, Вы можете получить, выбрав интересующий диапазон дат из раскрывающегося списка и нажав кнопку "Ввод!".


*Определитесь, кто Вы:
робот инопланетянин человек

Внимание! Время в таблицах - всемирное. Для получения местного времени необходимо прибавить поправку, которая равна 1 ч.

Смотрите также архив погоды в соседних городах и на ближайших метеорологических станциях:

Погода в Гротли (Норвегия) (26 км)
Погода на Маннене (Норвегия) (31 км)
Погода в Марстейне (Норвегия) (33 км)
Погода в Бьорли (Норвегия) (41 км)
Погода в Лебергсфелле (Норвегия) (43 км)
Погода в Брате (Норвегия) (44 км)
Погода в Стрын-Крокене (Норвегия) (57 км)
Погода в Рекдале (Норвегия) (58 км)
Погода в Молдэ аэропорту (Норвегия) (58 км)
Погода в Олесунне (Норвегия) (68 км)

Пояснения к столбцам:

Ветер - указаны скорость ветра в м/с - средняя за 10 мин, порывы в срок и между сроками (в фигурных скобках) и направление, откуда дует ветер: С - северный, СВ - северо-восточный, В - восточный, ЮВ - юго-восточный, Ю - южный, ЮЗ - юго-западный, З - западный, СЗ - северо-западный.
Видимость - горизонтальная дальность видимости в метрах или километрах. При видимости от 1 до 10 км при отсутствии осадков обычно наблюдается дымка, при ухудшении видимости до 1 км и менее - туман. В сухую погоду видимость может ухудшаться дымом, пылью или мглою.
Явления - указаны атмосферные явления, наблюдавшиеся в срок или в последний час перед сроком; фигурными скобками обозначены явления, наблюдавшиеся между сроками (за 1-3 часа до срока); квадратными скобками обозначены град или гололедные отложения с указанием их диаметра в мм.
Облачность - указаны через наклонную черту общая и нижняя облачность в баллах и высота нижней границы облаков в метрах; квадратными скобками обозначены формы облаков: Ci - перистые, Cs - перисто-слоистые, Cc - перисто-кучевые, Ac - высококучевые, As - высокослоистые, Sc - слоисто-кучевые, Ns - слоисто-дождевые, Cu - кучевые, Cb - кучево-дождевые. Подробнее классификацию облаков см. в Атласе облаков (PDF).
T - Температура воздуха - температура, измеренная на высоте 2 м над землей.
Td - Температура точки росы - температура, при понижении до которой содержащийся в воздухе водяной пар достигнет насыщения.
f - Относительная влажность воздуха - влажноcть воздуха, измеренная на высоте 2 м над землей.
Te - Эффективная температура - температура, которую ощущает одетый по сезону человек в тени. Характеристика душности погоды. При расчете учитывается влияние влажности воздуха и скорости ветра на теплоощущения человека.
Tes - Эффективная температура на солнце - температура, которую ощущает человек, с поправкой на солнечный нагрев. Характеристика знойности погоды. Зависит от высоты солнца над горизонтом, облачности и скорости ветра. Ночью, в пасмурную погоду, а также при ветре 12 м/с и более поправка равна нулю.
P - Атмосферное давление - приведенное к уровню моря атмосферное давление.
Po - Атмосферное давление - измеренное на уровне метеостанции атмосферное давление.
Tmin - Минимальная температура - минимум температуры воздуха на высоте 2 м над землей.
Tmax - Максимальная температура - максимум температуры воздуха на высоте 2 м над землей.
R - Количество осадков - Количество выпавших осадков за период времени, мм. При наведении курсора мыши на число - период времени, за который выпало указанное количество осадков.
R24 - Количество осадков - Количество выпавших осадков за 24 часа, мм.
S - Снежный покров - Высота снежного покрова, см. При наведении курсора мыши на число - состояние снежного покрова и степень покрытия местности в баллах.